• Processing (Info)

  • MPEC 2012-W11 : 2012 VM82

    The following Minor Planet Electronic Circular may be linked-to from your own Web pages, but must not otherwise be redistributed electronically.

    A form allowing access to any MPEC is at the bottom of this page.


    Read MPEC 2012-W10 Read MPEC 2012-W12


    M.P.E.C. 2012-W11                                Issued 2012 Nov. 17, 18:05 UT
    
         The Minor Planet Electronic Circulars contain information on unusual
             minor planets and routine data on comets.  They are published
       on behalf of Commission 20 of the International Astronomical Union by the
              Minor Planet Center, Smithsonian Astrophysical Observatory,
                              Cambridge, MA 02138, U.S.A.
    
                 Prepared using the Tamkin Foundation Computer Network
    
                                  MPC@CFA.HARVARD.EDU
                URL https://www.minorplanetcenter.net/    ISSN 1523-6714
    
                                       2012 VM82
    
    Observations:
         K12V82M* C2012 11 14.13681 23 10 37.84 -21 34 33.2          19.4 VrEW011703
         K12V82M  C2012 11 14.14304 23 10 37.92 -21 33 58.9          20.1 VrEW011703
         K12V82M  C2012 11 14.14932 23 10 38.17 -21 33 25.4          19.1 VrEW011703
         K12V82M  C2012 11 14.15552 23 10 38.46 -21 32 52.8          19.2 VrEW011703
         K12V82M  C2012 11 14.18778 23 10 39.72 -21 29 57.9          18.4 VrEW011703
         K12V82M  C2012 11 14.19692 23 10 40.36 -21 29 07.7          19.3 VrEW011703
         K12V82M  C2012 11 14.20612 23 10 40.69 -21 28 17.2          20.0 VrEW011703
         K12V82M  C2012 11 14.21534 23 10 41.12 -21 27 29.1          19.3 VrEW011703
         K12V82M KC2012 11 15.01995623 11 23.36 -20 15 36.1          19.3 VrEW011H21
         K12V82M KC2012 11 15.02494323 11 23.58 -20 15 09.2          19.6 VrEW011H21
         K12V82M KC2012 11 15.02953223 11 23.74 -20 14 44.6          19.5 VrEW011H21
         K12V82M |C2012 11 15.04036 23 11 23.93 -20 13 28.1          19.6 VuEW011807
         K12V82M |C2012 11 15.04275 23 11 24.05 -20 13 15.0          19.5 VuEW011807
         K12V82M |C2012 11 15.04514 23 11 24.17 -20 13 02.3          19.4 VuEW011807
         K12V82M |C2012 11 15.04752 23 11 24.27 -20 12 49.6          19.4 VuEW011807
         K12V82M  C2012 11 15.81020 23 12 04.83 -19 05 24.6                oEW011246
         K12V82M  C2012 11 15.81365 23 12 04.79 -19 05 06.4                oEW011246
         K12V82M KC2012 11 16.03465823 12 17.18 -18 45 31.0          19.4 VrEW011H21
         K12V82M KC2012 11 16.04203523 12 17.58 -18 44 51.6          19.5 VrEW011H21
         K12V82M KC2012 11 16.04942123 12 17.91 -18 44 11.8          19.3 VrEW011H21
         K12V82M |C2012 11 16.05470 23 12 17.86 -18 43 25.0          20.1 VuEW011807
         K12V82M |C2012 11 16.05707 23 12 18.03 -18 43 12.5          19.4 VuEW011807
         K12V82M KC2012 11 16.17289 23 12 24.02 -18 33 17.1          19.4 RqEW011H36
         K12V82M KC2012 11 16.18318 23 12 24.55 -18 32 22.2          19.5 RqEW011H36
         K12V82M KC2012 11 16.18817 23 12 24.78 -18 31 56.3          19.7 RqEW011H36
         K12V82M  C2012 11 16.79020 23 12 58.53 -17 38 58.3                oEW011246
         K12V82M  C2012 11 16.79207 23 12 58.49 -17 38 47.9                oEW011246
         K12V82M  C2012 11 16.79370 23 12 58.70 -17 38 39.7                oEW011246
         K12V82M  C2012 11 16.79470 23 12 58.82 -17 38 34.4                oEW011246
         K12V82M KC2012 11 17.05738 23 13 13.65 -17 15 30.7          19.0 RqEW011H36
         K12V82M KC2012 11 17.06741 23 13 14.17 -17 14 38.1          19.6 RqEW011H36
         K12V82M KC2012 11 17.08046623 13 14.67 -17 13 29.1          19.6 VvEW011H21
         K12V82M KC2012 11 17.08624923 13 14.96 -17 12 59.2          19.5 VvEW011H21
         K12V82M KC2012 11 17.08752 23 13 15.17 -17 12 52.6          19.7 RqEW011H36
         K12V82M KC2012 11 17.09203123 13 15.21 -17 12 28.3          19.5 VvEW011H21
         K12V82M KC2012 11 17.09761 23 13 15.70 -17 11 59.1          19.4 RqEW011H36
         K12V82M KC2012 11 17.09781223 13 15.54 -17 11 58.0          19.2 VvEW011H21
         K12V82M KC2012 11 17.10762 23 13 16.19 -17 11 06.9          19.2 RqEW011H36
         K12V82M  C2012 11 17.12186 23 13 17.11 -17 09 51.1          19.5 VrEW011G96
         K12V82M  C2012 11 17.13175 23 13 17.65 -17 08 58.9          19.7 VrEW011G96
         K12V82M  C2012 11 17.14164 23 13 18.12 -17 08 06.8          19.8 VrEW011G96
         K12V82M  C2012 11 17.15157 23 13 18.62 -17 07 15.0          19.5 VrEW011G96
    
    Observer details:
    246 Klet Observatory-KLENOT.  Observers M. Tichy, M. Honkova, J. Ticha,
        M. Kocer.  Measurer M. Tichy.  1.06-m KLENOT Telescope + CCD.
    703 Catalina Sky Survey.  Observer R. A. Kowalski.  Measurers A. Boattini,
        E. J. Christensen, A. R. Gibbs, A. D. Grauer, R. E. Hill, J. A. Johnson,
        R. A. Kowalski, S. M. Larson, R. H. McNaught.  0.68-m Schmidt + CCD.
    807 Cerro Tololo.  Observers T. Linder, R. Holmes, R. Sampson.  0.41-m f/11
        Ritchey-Chretien + CCD.
    G96 Mt. Lemmon Survey.  Observer A. D. Grauer.  Measurers A. Boattini,
        E. J. Christensen, A. R. Gibbs, A. D. Grauer, R. E. Hill, J. A. Johnson,
        R. A. Kowalski, S. M. Larson, R. H. McNaught.  1.5-m reflector + CCD.
    H21 Astronomical Research Observatory, Westfield.  Observer R. Holmes.
        Measurers L. Buzzi, H. Devore, S. Foglia, T. Vorobjov.  0.61-m f/4.0
        astrograph + CCD.
    H36 Sandlot Observatory, Scranton.  Observer G. Hug.  0.56-m reflector + CCD.
    
    Orbital elements:
    2012 VM82                                                Earth MOID = 0.2490 AU
    Epoch 2012 Sept. 30.0 TT = JDT 2456200.5                MPC
    M 350.90805              (2000.0)            P               Q
    n   0.26776150     Peri.  339.06894     +0.91045012     -0.22983953
    a   2.3839874      Node    39.80197     +0.41250542     +0.56552000
    e   0.4877841      Incl.   32.49326     -0.03032927     +0.79206119
    P   3.68           H   18.8           G   0.15           U   8
    Residuals in seconds of arc
    121114 703 (2.3+  0.9-)   121115 807  0.3+  0.2+    121116 246  1.5+  0.1-
    121114 703  0.3-  0.1-    121115 246  1.2+  0.8-    121117 H36  0.0   0.0
    121114 703  0.7-  0.4-    121115 246  1.8-  0.9-    121117 H36  0.2+  0.0
    121114 703  0.4-  1.2-    121116 H21  0.2-  0.2-    121117 H21  0.2-  0.4+
    121114 703 (2.6-  0.2-)   121116 H21  0.4+  0.1+    121117 H21  0.2-  0.1-
    121114 703  0.7+  0.7+    121116 H21  0.1+  0.7+    121117 H36  0.1+  0.2-
    121114 703  0.4-  1.6+    121116 807  0.3+  0.7+    121117 H21  0.8-  0.4+
    121114 703  0.1-  0.1-    121116 807  1.1+  0.7+    121117 H36  0.4+  0.3+
    121115 H21  0.8+  0.4-    121116 H36  0.1-  0.1+    121117 H21  0.2-  0.3+
    121115 H21  0.7+  0.2-    121116 H36  0.2+  0.3+    121117 H36  0.2+  0.1-
    121115 H21  0.0   0.1-    121116 H36  0.0   0.3-    121117 G96  0.4-  0.2-
    121115 807  0.0   0.0     121116 246  0.6+  0.3-    121117 G96  0.2+  0.0
    121115 807  0.2+  0.3+    121116 246  1.4-  0.2+    121117 G96  0.1-  0.2+
    121115 807  0.4+  0.2+    121116 246  0.5+  0.2-    121117 G96  0.0   0.2-
    
    Ephemeris:
    2012 VM82                a,e,i = 2.38, 0.49, 32                  q = 1.2211
    Date    TT    R. A. (2000) Decl.     Delta      r     Elong.  Phase     V
    2012 10 18    23 06 07.6 -59 22 18   0.5126  1.2333   105.1    51.3    19.7
    ...
    2012 11 02    23 03 19.5 -39 49 27   0.4747  1.2212   107.4    50.8    19.5
    ...
    2012 11 10    23 07 27.8 -27 48 51   0.4779  1.2235   107.7    50.4    19.5
    ...
    2012 11 16    23 12 15.1 -18 48 24   0.4930  1.2293   107.3    50.2    19.6
    2012 11 17    23 13 10.3 -17 20 22   0.4965  1.2306   107.2    50.1    19.6
    2012 11 18    23 14 07.3 -15 53 11   0.5004  1.2320   107.1    50.1    19.6
    ...
    2012 11 24    23 20 26.9 -07 32 27   0.5295  1.2422   106.0    49.8    19.7
    ...
    2012 12 02    23 30 21.6 +02 21 53   0.5823  1.2608   104.0    49.3    20.0
    ...
    2012 12 17    23 53 00.4 +16 58 43   0.7143  1.3095    99.7    47.8    20.5
    
    A. U. Tomatic                (C) Copyright 2012 MPC           M.P.E.C. 2012-W11
    

    Read MPEC 2012-W10 Read MPEC 2012-W12


    MPEC number:

    Enter an MPEC number in one of the following forms:

    • 1997-B01 (the full form)
    • J97B01 (the packed version of the full form)
    • B01 (the abbreviated form)